Погода в Тегешеве

Россия / Чувашская Республика     55°33′08″N   48°05′30″E
темп.,
°C
ветер,
м/с
пор.,
м/с
влажн.,
%
обл.,
%
осадки,
мм/ч
давл.,
гПа
погр.,
м
15 июня, вт
вт1500:00+16зсз2290100 0.0 101514
03:00+16зюз119099 0.0 101511
06:00+19ююв008571 0.0 1015102
09:00+21ююв3480100 1.8 1015364
12:00+22ююз2477100 2.5 1015400
15:00+22ю3571100 2.6 1014874
18:00+23ю347797 0.0 1013224
21:00+20юв1176100 0.0 101311
16 июня, ср
ср1600:00+17в228895 0.3 101215
03:00+18вюв368977 0.3 1010118
06:00+20в36855 0.0 1010208
09:00+24в35685 0.0 1009457
12:00+27в34565 0.0 1007972
15:00+28в22523 0.0 10071420
18:00+26сз347198 0.1 100683
21:00+18ссз713945 2.5 1010484
17 июня, чт
чт1700:00+15с613940 0.0 1012449
03:00+13с512920 0.0 1014301
06:00+14с4985100 0.0 1016303
09:00+18с466578 0.0 1017785
12:00+21ссз57530 0.0 10181887
15:00+22зсз585649 0.0 10182312
18:00+19сз596998 0.0 1019330
21:00+14ссз33710 0.0 102143
18 июня, пт
пт1800:00+12с36764 0.0 102293
03:00+11с33765 0.0 102438
06:00+13с48754 0.0 1026278
09:00+17ссв46568 0.0 1027813
12:00+19с45460 0.0 10271487
15:00+21ссз24455 0.0 10271646
18:00+20зюз236799 0.0 102685
21:00+15зюз33775 0.0 102726
19 июня, сб
сб1900:00+13зюз358486 0.0 102771
03:00+13зюз36885 0.0 1028107
06:00+16зюз411815 0.0 1028293
09:00+21зюз69695 0.0 1026570
12:00+24з79630 0.0 10251227
15:00+25зсз710670 0.0 10231657
18:00+23з612740 0.0 1023726
21:00+20з514830 0.1 1022365